Regional Weather Roundup
Issued by NWS

Home | Current Version | Previous Version | Text Only | Print | Product List | Glossary Off
Versions: 1 2 3 4 5 6 7 8 9 10 11 12 13 14 15 16 17 18 19 20 21 22 23 24 25 26 27 28 29 30 31 32 33 34 35 36 37 38 39 40 41 42 43 44 45 46 47 48 49 50

624
ASUS45 KCYS 270710
RWRWY

WYOMING REGIONAL WEATHER ROUNDUP
NATIONAL WEATHER SERVICE CHEYENNE WY
100 AM MDT WED JUL 27 2016

NOTE:  "FAIR" INDICATES FEW OR NO CLOUDS BELOW 12,000 FEET
WITH NO SIGNIFICANT WEATHER AND/OR OBSTRUCTIONS TO VISIBILITY.

WYZ001-270800-
YELLOWSTONE NATIONAL PARK

CITY           SKY/WX    TMP DP  RH WIND       PRES   REMARKS
LK YELLOWSTONE   N/A     51  38  60 CALM      30.37F
W YELLOWSTONE  NOT AVBL

$$
WYZ002>013-054>058-071-098>099-270800-
NORTHERN WYOMING

CITY           SKY/WX    TMP DP  RH WIND       PRES   REMARKS
JACKSON        FAIR      59  36  41 N9        30.25S
CODY           FAIR      64  43  45 S6        30.17S
GREYBULL       FAIR      72  48  42 W7        30.08R
WORLAND        FAIR      73  46  38 E16       30.08F
SHERIDAN       FAIR      65  51  60 NW10      30.09F
BUFFALO        CLOUDY    67  52  58 S12       30.18F
GILLETTE       FAIR      67  55  65 CALM      30.14R
HULETT         FAIR      66  61  82 E8G14     30.16R
NEWCASTLE      FAIR      63  54  72 NW3       30.15S

$$
WYZ014>020-022>026-101>103-270800-
CENTRAL WYOMING

CITY           SKY/WX    TMP DP  RH WIND       PRES   REMARKS
BIG PINEY      FAIR      59  30  33 NE6       30.28R
PINEDALE       FAIR      55  32  41 NW8       30.29R
DUBOIS         FAIR      57  32  38 NW6       30.30S
LANDER         FAIR      72  38  29 CALM      30.19R
RIVERTON       FAIR      71  42  35 E6        30.18S
CASPER         FAIR      69  44  40 N10       30.15S
DOUGLAS          N/A    N/A N/A N/A MISG      30.15F

$$
WYZ021-027>030-104>119-270800-
SOUTHERN WYOMING

CITY           SKY/WX    TMP DP  RH WIND       PRES   REMARKS
EVANSTON       FAIR      70  18  13 W5        30.30R
KEMMERER         N/A     61  32  33 NW9       30.30S
FORT BRIDGER   FAIR      67  20  16 W9        30.30S
ROCK SPRINGS   FAIR      68  30  24 W3        30.23S
DIXON          FAIR      59  39  47 CALM      30.28S
RAWLINS        FAIR      68  36  30 S9        30.25S
SARATOGA       FAIR      61  37  41 SE13      30.29S
LARAMIE        FAIR      56  36  47 SE8       30.29S
CHEYENNE       FAIR      60  46  59 NW6       30.21F
TORRINGTON     LGT RAIN  67  60  78 NE24      30.07F
PINE BLUFFS    FAIR      55  48  76 CALM      30.17S

$$




USA.gov is the U.S. government's official web portal to all federal, state and local government web resources and services.